Time,TemperatureF,DewpointF,PressureIn,WindDirection,WindDirectionDegrees,WindSpeedMPH,WindSpeedGustMPH,Humidity,HourlyPrecipIn,Conditions,Clouds,dailyrainin,SoftwareType,DateUTC
2013-01-29 00:02:00,23.0,17.0,29.72,WNW,286,1.0,7.0,77,0.00,,,0.00,,2013-01-29 06:02:00,
2013-01-29 00:11:00,23.0,17.0,29.72,WNW,286,1.0,7.0,77,0.00,,,0.00,,2013-01-29 06:11:00,
2013-01-29 00:21:00,23.0,17.0,29.73,West,266,1.0,6.0,77,0.00,,,0.00,,2013-01-29 06:21:00,
2013-01-29 00:32:00,23.0,17.0,29.72,West,277,0.0,7.0,77,0.00,,,0.00,,2013-01-29 06:32:00,
2013-01-29 00:42:00,23.0,17.0,29.72,West,277,0.0,7.0,77,0.00,,,0.00,,2013-01-29 06:42:00,
2013-01-29 00:52:00,23.0,17.0,29.72,NNW,333,1.0,5.0,77,0.00,,,0.00,,2013-01-29 06:52:00,
2013-01-29 01:01:00,23.0,17.0,29.72,West,279,1.0,5.0,77,0.00,,,0.00,,2013-01-29 07:01:00,
2013-01-29 01:11:00,23.0,17.0,29.72,West,279,1.0,5.0,77,0.00,,,0.00,,2013-01-29 07:11:00,
2013-01-29 01:21:00,23.0,17.0,29.71,West,271,1.0,6.0,77,0.00,,,0.00,,2013-01-29 07:21:00,
2013-01-29 01:32:00,23.0,17.0,29.70,West,270,2.0,8.0,77,0.00,,,0.00,,2013-01-29 07:32:00,
2013-01-29 01:41:00,23.0,17.0,29.70,West,270,2.0,8.0,77,0.00,,,0.00,,2013-01-29 07:41:00,
2013-01-29 01:52:00,23.0,17.0,29.71,WSW,240,3.0,9.0,78,0.00,,,0.00,,2013-01-29 07:52:00,
2013-01-29 02:02:00,24.0,18.0,29.72,WNW,289,2.0,8.0,78,0.00,,,0.00,,2013-01-29 08:02:00,
2013-01-29 02:11:00,24.0,18.0,29.72,WNW,289,2.0,8.0,78,0.00,,,0.00,,2013-01-29 08:11:00,
2013-01-29 02:21:00,24.0,18.0,29.72,NNE,22,2.0,7.0,78,0.00,,,0.00,,2013-01-29 08:21:00,
2013-01-29 02:31:00,24.0,18.0,29.72,NNE,22,2.0,7.0,78,0.00,,,0.00,,2013-01-29 08:31:00,
2013-01-29 02:41:00,24.0,18.0,29.72,NNE,22,2.0,7.0,78,0.00,,,0.00,,2013-01-29 08:41:00,
2013-01-29 02:52:00,24.0,18.0,29.71,NNW,340,2.0,7.0,78,0.00,,,0.00,,2013-01-29 08:52:00,
2013-01-29 03:01:00,24.0,18.0,29.71,WNW,290,2.0,7.0,78,0.00,,,0.00,,2013-01-29 09:01:00,
2013-01-29 03:11:00,24.0,18.0,29.71,WNW,290,2.0,7.0,78,0.00,,,0.00,,2013-01-29 09:11:00,
2013-01-29 03:21:00,24.0,18.0,29.70,WNW,299,3.0,7.0,78,0.00,,,0.00,,2013-01-29 09:21:00,
2013-01-29 03:31:00,24.0,18.0,29.71,NW,309,2.0,8.0,78,0.00,,,0.00,,2013-01-29 09:31:00,
2013-01-29 03:42:00,24.0,18.0,29.71,NW,309,2.0,8.0,78,0.00,,,0.00,,2013-01-29 09:42:00,
2013-01-29 03:51:00,24.0,18.0,29.70,NNE,26,2.0,9.0,78,0.00,,,0.00,,2013-01-29 09:51:00,
2013-01-29 04:01:00,25.0,19.0,29.70,NNE,12,4.0,8.0,78,0.00,,,0.00,,2013-01-29 10:01:00,
2013-01-29 04:11:00,25.0,19.0,29.70,NNE,12,4.0,8.0,78,0.00,,,0.00,,2013-01-29 10:11:00,
2013-01-29 04:21:00,24.0,18.0,29.70,WSW,254,3.0,10.0,78,0.00,,,0.00,,2013-01-29 10:21:00,
2013-01-29 04:32:00,24.0,18.0,29.67,North,349,3.0,9.0,78,0.00,,,0.00,,2013-01-29 10:32:00,
2013-01-29 04:41:00,24.0,18.0,29.67,North,349,3.0,9.0,78,0.00,,,0.00,,2013-01-29 10:41:00,
2013-01-29 04:51:00,24.0,18.0,29.69,NNW,331,1.0,9.0,77,0.00,,,0.00,,2013-01-29 10:51:00,
2013-01-29 05:01:00,24.0,18.0,29.69,West,269,2.0,7.0,77,0.00,,,0.00,,2013-01-29 11:01:00,
2013-01-29 05:11:00,24.0,18.0,29.69,West,269,2.0,7.0,77,0.00,,,0.00,,2013-01-29 11:11:00,
2013-01-29 05:21:00,24.0,18.0,29.70,NNW,327,3.0,8.0,78,0.00,,,0.00,,2013-01-29 11:21:00,
2013-01-29 05:32:00,25.0,19.0,29.71,NW,308,3.0,8.0,78,0.00,,,0.00,,2013-01-29 11:32:00,
2013-01-29 05:42:00,25.0,19.0,29.71,NW,308,3.0,8.0,78,0.00,,,0.00,,2013-01-29 11:42:00,
2013-01-29 05:52:00,25.0,19.0,29.70,North,355,3.0,9.0,78,0.00,,,0.00,,2013-01-29 11:52:00,
2013-01-29 06:02:00,25.0,19.0,29.70,North,360,2.0,7.0,77,0.00,,,0.00,,2013-01-29 12:02:00,
2013-01-29 06:12:00,25.0,19.0,29.70,North,360,2.0,7.0,77,0.00,,,0.00,,2013-01-29 12:12:00,
2013-01-29 06:22:00,25.0,19.0,29.70,West,277,3.0,9.0,77,0.00,,,0.00,,2013-01-29 12:22:00,
2013-01-29 06:32:00,25.0,19.0,29.72,NW,316,3.0,10.0,77,0.00,,,0.00,,2013-01-29 12:32:00,
2013-01-29 06:43:00,25.0,19.0,29.72,NW,316,3.0,10.0,77,0.00,,,0.00,,2013-01-29 12:43:00,
2013-01-29 06:52:00,25.0,19.0,29.72,WSW,252,5.0,10.0,77,0.00,,,0.00,,2013-01-29 12:52:00,
2013-01-29 07:02:00,25.0,19.0,29.71,NNW,342,3.0,7.0,77,0.00,,,0.00,,2013-01-29 13:02:00,
2013-01-29 07:12:00,25.0,19.0,29.71,NNW,342,3.0,7.0,77,0.00,,,0.00,,2013-01-29 13:12:00,
2013-01-29 07:22:00,25.0,19.0,29.73,WNW,301,2.0,9.0,77,0.00,,,0.00,,2013-01-29 13:22:00,
2013-01-29 07:32:00,24.0,18.0,29.73,NNW,334,3.0,9.0,77,0.00,,,0.00,,2013-01-29 13:32:00,
2013-01-29 07:42:00,24.0,18.0,29.73,NNW,334,3.0,9.0,77,0.00,,,0.00,,2013-01-29 13:42:00,
2013-01-29 07:52:00,24.0,18.0,29.75,WNW,299,2.0,9.0,77,0.00,,,0.00,,2013-01-29 13:52:00,
2013-01-29 08:02:00,24.0,18.0,29.75,NW,319,3.0,8.0,76,0.00,,,0.00,,2013-01-29 14:02:00,
2013-01-29 08:12:00,24.0,18.0,29.76,WNW,288,1.0,6.0,76,0.00,,,0.00,,2013-01-29 14:12:00,
2013-01-29 08:22:00,24.0,18.0,29.76,WNW,288,1.0,6.0,76,0.00,,,0.00,,2013-01-29 14:22:00,
2013-01-29 08:33:00,24.0,18.0,29.75,NW,304,3.0,8.0,76,0.00,,,0.00,,2013-01-29 14:33:00,
2013-01-29 08:43:00,24.0,18.0,29.75,NW,304,3.0,8.0,76,0.00,,,0.00,,2013-01-29 14:43:00,
2013-01-29 08:53:00,23.0,16.0,29.76,NNW,335,3.0,8.0,75,0.00,,,0.00,,2013-01-29 14:53:00,
2013-01-29 09:02:00,23.0,16.0,29.76,North,355,2.0,9.0,75,0.00,,,0.00,,2013-01-29 15:02:00,
2013-01-29 09:12:00,23.0,16.0,29.76,North,355,2.0,9.0,75,0.00,,,0.00,,2013-01-29 15:12:00,
2013-01-29 09:22:00,23.0,16.0,29.76,WSW,244,2.0,7.0,74,0.00,,,0.00,,2013-01-29 15:22:00,
2013-01-29 09:33:00,23.0,16.0,29.76,West,269,3.0,11.0,73,0.00,,,0.00,,2013-01-29 15:33:00,
2013-01-29 09:43:00,23.0,16.0,29.76,West,269,3.0,11.0,73,0.00,,,0.00,,2013-01-29 15:43:00,
2013-01-29 09:53:00,23.0,16.0,29.76,NNW,344,4.0,10.0,73,0.00,,,0.00,,2013-01-29 15:53:00,
2013-01-29 10:02:00,23.0,16.0,29.77,NW,317,4.0,11.0,74,0.00,,,0.00,,2013-01-29 16:02:00,
2013-01-29 10:12:00,23.0,16.0,29.77,NW,317,4.0,11.0,74,0.00,,,0.00,,2013-01-29 16:12:00,
2013-01-29 10:22:00,23.0,16.0,29.78,WNW,300,2.0,10.0,75,0.00,,,0.00,,2013-01-29 16:22:00,
2013-01-29 10:32:00,23.0,17.0,29.78,West,281,4.0,9.0,76,0.00,,,0.00,,2013-01-29 16:32:00,
2013-01-29 10:42:00,23.0,17.0,29.78,West,281,4.0,9.0,76,0.00,,,0.00,,2013-01-29 16:42:00,
2013-01-29 10:53:00,22.0,16.0,29.79,West,270,3.0,10.0,76,0.00,,,0.00,,2013-01-29 16:53:00,
2013-01-29 11:03:00,22.0,16.0,29.79,WNW,286,4.0,8.0,76,0.00,,,0.00,,2013-01-29 17:03:00,
2013-01-29 11:12:00,22.0,16.0,29.79,WNW,286,4.0,8.0,76,0.00,,,0.00,,2013-01-29 17:12:00,
2013-01-29 11:22:00,22.0,16.0,29.79,WNW,301,5.0,11.0,76,0.00,,,0.00,,2013-01-29 17:22:00,
2013-01-29 11:32:00,22.0,16.0,29.79,NNW,334,3.0,9.0,76,0.00,,,0.00,,2013-01-29 17:32:00,
2013-01-29 11:42:00,22.0,16.0,29.79,NNW,334,3.0,9.0,76,0.00,,,0.00,,2013-01-29 17:42:00,
2013-01-29 11:52:00,22.0,16.0,29.80,NE,51,2.0,11.0,76,0.00,,,0.00,,2013-01-29 17:52:00,
2013-01-29 12:03:00,22.0,16.0,29.80,NNW,332,2.0,8.0,76,0.00,,,0.00,,2013-01-29 18:03:00,
2013-01-29 12:12:00,22.0,16.0,29.80,NNW,332,2.0,8.0,76,0.00,,,0.00,,2013-01-29 18:12:00,
2013-01-29 12:22:00,22.0,15.0,29.80,NW,307,5.0,10.0,74,0.00,,,0.00,,2013-01-29 18:22:00,
2013-01-29 12:33:00,21.0,14.0,29.80,WNW,297,5.0,11.0,74,0.00,,,0.00,,2013-01-29 18:33:00,
2013-01-29 12:42:00,21.0,14.0,29.80,WNW,297,5.0,11.0,74,0.00,,,0.00,,2013-01-29 18:42:00,
2013-01-29 12:52:00,20.0,13.0,29.80,SW,221,6.0,15.0,74,0.00,,,0.00,,2013-01-29 18:52:00,
2013-01-29 13:02:00,21.0,14.0,29.80,NW,326,4.0,13.0,74,0.00,,,0.00,,2013-01-29 19:02:00,
2013-01-29 13:12:00,21.0,14.0,29.80,NW,326,4.0,13.0,74,0.00,,,0.00,,2013-01-29 19:12:00,
2013-01-29 13:22:00,20.0,13.0,29.80,West,279,3.0,13.0,74,0.00,,,0.00,,2013-01-29 19:22:00,
2013-01-29 13:32:00,21.0,14.0,29.80,NW,311,3.0,10.0,74,0.00,,,0.00,,2013-01-29 19:32:00,
2013-01-29 13:42:00,21.0,14.0,29.80,NW,311,3.0,10.0,74,0.00,,,0.00,,2013-01-29 19:42:00,
2013-01-29 13:52:00,20.0,13.0,29.80,NE,36,5.0,12.0,73,0.00,,,0.00,,2013-01-29 19:52:00,
2013-01-29 14:02:00,21.0,14.0,29.80,WNW,303,4.0,15.0,73,0.00,,,0.00,,2013-01-29 20:02:00,
2013-01-29 14:12:00,21.0,14.0,29.80,WNW,303,4.0,15.0,73,0.00,,,0.00,,2013-01-29 20:12:00,
2013-01-29 14:22:00,21.0,14.0,29.81,West,265,4.0,14.0,74,0.00,,,0.00,,2013-01-29 20:22:00,
2013-01-29 14:33:00,21.0,14.0,29.80,WNW,303,5.0,16.0,74,0.00,,,0.00,,2013-01-29 20:33:00,
2013-01-29 14:42:00,21.0,14.0,29.80,WNW,303,5.0,16.0,74,0.00,,,0.00,,2013-01-29 20:42:00,
2013-01-29 14:53:00,21.0,14.0,29.82,NNW,332,5.0,18.0,74,0.00,,,0.00,,2013-01-29 20:53:00,
2013-01-29 15:03:00,21.0,14.0,29.82,NNW,332,5.0,18.0,74,0.00,,,0.00,,2013-01-29 21:03:00,
2013-01-29 15:12:00,21.0,14.0,29.82,NNW,332,5.0,18.0,74,0.00,,,0.00,,2013-01-29 21:12:00,
2013-01-29 15:22:00,21.0,14.0,29.83,NNW,342,8.0,13.0,75,0.00,,,0.00,,2013-01-29 21:22:00,
2013-01-29 15:33:00,22.0,15.0,29.84,NW,305,4.0,14.0,74,0.00,,,0.00,,2013-01-29 21:33:00,
2013-01-29 15:42:00,22.0,15.0,29.84,NW,305,4.0,14.0,74,0.00,,,0.00,,2013-01-29 21:42:00,
2013-01-29 15:53:00,22.0,15.0,29.84,West,277,2.0,11.0,74,0.00,,,0.00,,2013-01-29 21:53:00,
2013-01-29 16:02:00,22.0,15.0,29.85,WNW,288,7.0,15.0,73,0.00,,,0.00,,2013-01-29 22:02:00,
2013-01-29 16:12:00,22.0,15.0,29.85,WNW,288,7.0,15.0,73,0.00,,,0.00,,2013-01-29 22:12:00,
2013-01-29 16:22:00,22.0,15.0,29.85,West,279,5.0,11.0,73,0.00,,,0.00,,2013-01-29 22:22:00,
2013-01-29 16:33:00,22.0,15.0,29.85,WNW,284,6.0,14.0,73,0.00,,,0.00,,2013-01-29 22:33:00,
2013-01-29 16:42:00,22.0,15.0,29.85,WNW,284,6.0,14.0,73,0.00,,,0.00,,2013-01-29 22:42:00,
2013-01-29 16:53:00,22.0,15.0,29.85,West,271,5.0,20.0,74,0.00,,,0.00,,2013-01-29 22:53:00,
2013-01-29 17:02:00,22.0,15.0,29.85,NNW,333,7.0,15.0,74,0.00,,,0.00,,2013-01-29 23:02:00,
2013-01-29 17:12:00,22.0,15.0,29.85,NNW,333,7.0,15.0,74,0.00,,,0.00,,2013-01-29 23:12:00,
2013-01-29 17:22:00,22.0,15.0,29.85,WNW,287,6.0,12.0,74,0.00,,,0.00,,2013-01-29 23:22:00,
2013-01-29 17:32:00,22.0,15.0,29.86,NW,319,7.0,14.0,73,0.00,,,0.00,,2013-01-29 23:32:00,
2013-01-29 17:42:00,22.0,15.0,29.86,NW,319,7.0,14.0,73,0.00,,,0.00,,2013-01-29 23:42:00,
2013-01-29 17:53:00,22.0,15.0,29.86,NNW,329,5.0,14.0,74,0.00,,,0.00,,2013-01-29 23:53:00,
2013-01-29 18:02:00,22.0,15.0,29.87,NW,312,6.0,16.0,74,0.00,,,0.00,,2013-01-30 00:02:00,
2013-01-29 18:12:00,22.0,15.0,29.87,NW,312,6.0,16.0,74,0.00,,,0.00,,2013-01-30 00:12:00,
2013-01-29 18:22:00,22.0,15.0,29.87,WNW,300,7.0,16.0,73,0.00,,,0.00,,2013-01-30 00:22:00,
2013-01-29 18:32:00,22.0,15.0,29.88,NNW,346,7.0,14.0,73,0.00,,,0.00,,2013-01-30 00:32:00,
2013-01-29 18:42:00,22.0,15.0,29.88,NNW,346,7.0,14.0,73,0.00,,,0.00,,2013-01-30 00:42:00,
2013-01-29 18:53:00,22.0,15.0,29.90,NW,325,5.0,13.0,73,0.00,,,0.00,,2013-01-30 00:53:00,
2013-01-29 19:02:00,22.0,15.0,29.91,NNE,12,2.0,9.0,73,0.00,,,0.00,,2013-01-30 01:02:00,
2013-01-29 19:12:00,22.0,15.0,29.91,NNE,12,2.0,9.0,73,0.00,,,0.00,,2013-01-30 01:12:00,
2013-01-29 19:22:00,22.0,14.0,29.93,NNW,327,5.0,13.0,72,0.00,,,0.00,,2013-01-30 01:22:00,
2013-01-29 19:32:00,22.0,14.0,29.93,NW,315,6.0,13.0,71,0.00,,,0.00,,2013-01-30 01:32:00,
2013-01-29 19:42:00,22.0,14.0,29.93,NW,315,6.0,13.0,71,0.00,,,0.00,,2013-01-30 01:42:00,
2013-01-29 19:52:00,22.0,13.0,29.95,NNW,329,6.0,13.0,69,0.00,,,0.00,,2013-01-30 01:52:00,
2013-01-29 20:02:00,22.0,14.0,29.93,North,349,5.0,13.0,70,0.00,,,0.00,,2013-01-30 02:02:00,
2013-01-29 20:12:00,22.0,14.0,29.93,North,349,5.0,13.0,70,0.00,,,0.00,,2013-01-30 02:12:00,
2013-01-29 20:22:00,22.0,14.0,29.92,West,271,6.0,13.0,70,0.00,,,0.00,,2013-01-30 02:22:00,
2013-01-29 20:33:00,22.0,14.0,29.92,NNW,346,5.0,13.0,71,0.00,,,0.00,,2013-01-30 02:33:00,
2013-01-29 20:42:00,22.0,14.0,29.92,NNW,346,5.0,13.0,71,0.00,,,0.00,,2013-01-30 02:42:00,
2013-01-29 20:53:00,22.0,14.0,29.92,NNW,340,5.0,11.0,72,0.00,,,0.00,,2013-01-30 02:53:00,
2013-01-29 21:03:00,22.0,15.0,29.93,West,259,6.0,15.0,73,0.00,,,0.00,,2013-01-30 03:03:00,
2013-01-29 21:11:00,22.0,15.0,29.93,West,259,6.0,15.0,73,0.00,,,0.00,,2013-01-30 03:11:00,
2013-01-29 21:22:00,22.0,14.0,29.93,NW,314,6.0,14.0,72,0.00,,,0.00,,2013-01-30 03:22:00,
2013-01-29 21:32:00,21.0,13.0,29.94,West,263,6.0,14.0,72,0.00,,,0.00,,2013-01-30 03:32:00,
2013-01-29 21:42:00,21.0,13.0,29.94,West,263,6.0,14.0,72,0.00,,,0.00,,2013-01-30 03:42:00,
2013-01-29 21:52:00,21.0,13.0,29.94,North,350,6.0,11.0,72,0.00,,,0.00,,2013-01-30 03:52:00,
2013-01-29 22:02:00,21.0,13.0,29.94,WNW,303,4.0,9.0,72,0.00,,,0.00,,2013-01-30 04:02:00,
2013-01-29 22:11:00,21.0,13.0,29.94,WNW,303,4.0,9.0,72,0.00,,,0.00,,2013-01-30 04:11:00,
2013-01-29 22:22:00,21.0,14.0,29.95,NW,309,6.0,13.0,73,0.00,,,0.00,,2013-01-30 04:22:00,
2013-01-29 22:32:00,21.0,14.0,29.95,NNW,327,6.0,12.0,73,0.00,,,0.00,,2013-01-30 04:32:00,
2013-01-29 22:41:00,21.0,14.0,29.95,NNW,327,6.0,12.0,73,0.00,,,0.00,,2013-01-30 04:41:00,
2013-01-29 22:52:00,19.0,11.0,29.96,WNW,289,1.0,7.0,71,0.00,,,0.00,,2013-01-30 04:52:00,
2013-01-29 23:03:00,18.0,11.0,29.96,NNW,346,4.0,12.0,72,0.00,,,0.00,,2013-01-30 05:03:00,
2013-01-29 23:12:00,18.0,11.0,29.96,NNW,346,4.0,12.0,72,0.00,,,0.00,,2013-01-30 05:12:00,
2013-01-29 23:22:00,18.0,11.0,29.96,NNW,331,4.0,9.0,72,0.00,,,0.00,,2013-01-30 05:22:00,
2013-01-29 23:32:00,17.0,10.0,29.96,NNW,331,7.0,14.0,72,0.00,,,0.00,,2013-01-30 05:32:00,
2013-01-29 23:43:00,17.0,10.0,29.96,NNW,331,7.0,14.0,72,0.00,,,0.00,,2013-01-30 05:43:00,
2013-01-29 23:52:00,17.0,10.0,29.94,NNW,339,7.0,15.0,72,0.00,,,0.00,,2013-01-30 05:52:00,